Wind_Speed
12 13 13 14 14 14 14 15 16 17 18 19 19 19 20 21 21 21 22 23 23 23 24 24 25 26 26 27 27 28 29 30 31 31 32 32 32 33
12 13 14 15 15 15 16 17 17 17 18 19 20 21 22 22 23 23 24 24 24 24 25 25 26 27 29 29 30 30 31 32 32 33 33 34 34 34
12 12 13 14 15 16 17 17 17 18 19 20 21 22 23 23 24 24 24 24 24 25 26 27 28 29 30 30 31 32 32 33 33 34 34 34 34 34
13 13 14 14 15 16 17 18 18 19 20 21 22 23 23 24 24 24 25 25 26 27 27 28 29 29 30 31 31 32 33 33 33 34 34 34 34 34
13 13 14 15 16 16 17 17 18 19 21 22 22 22 23 23 24 25 26 26 26 27 28 29 30 31 31 31 32 32 32 33 34 34 35 35 35 35
14 14 15 16 16 17 17 17 18 19 20 20 21 22 22 23 24 26 26 27 27 28 30 30 31 31 32 32 33 33 33 33 33 34 35 36 36 36
15 15 16 16 17 17 18 18 19 19 20 21 22 23 24 25 26 26 26 27 28 29 30 30 31 32 32 33 33 34 34 35 35 35 36 37 37 37
15 16 17 18 18 18 19 19 20 21 21 23 23 24 25 27 27 27 28 28 29 30 31 31 32 33 34 34 34 34 35 36 36 37 38 38 39 39
17 17 18 19 19 20 20 21 21 22 23 24 25 26 27 28 28 28 29 30 30 31 32 32 33 33 34 35 36 36 36 37 37 38 38 39 39 39
18 19 20 21 21 22 22 22 22 23 24 25 25 26 27 28 28 29 29 30 30 31 32 32 33 35 36 37 37 37 37 38 38 38 38 38 39 39
19 20 21 22 23 24 24 24 24 25 25 26 26 27 27 28 29 30 31 32 32 33 33 34 35 36 37 37 38 38 38 38 38 38 38 38 38 38
20 21 23 24 24 24 25 25 26 26 26 27 28 28 28 29 30 32 32 33 34 34 35 36 36 37 37 37 37 36 36 36 36 36 36 36 36 36
22 23 23 24 25 25 26 27 26 26 27 28 29 29 30 31 31 32 33 34 34 35 35 36 36 37 37 36 35 35 34 34 34 34 33 33 33 34
24 24 25 25 26 26 27 27 27 28 29 29 30 31 32 32 33 34 34 34 34 35 35 35 35 35 35 35 33 33 32 32 32 32 32 32 31 32
25 26 25 25 25 26 26 27 28 29 30 31 32 32 33 33 34 34 34 34 34 35 35 35 34 34 34 34 33 32 32 31 31 31 31 31 31 31
25 26 26 26 27 27 28 29 30 31 32 32 33 33 33 33 33 34 34 34 34 34 34 34 34 34 33 33 32 32 32 32 31 30 30 30 31 30
27 28 28 28 28 29 30 30 31 32 33 33 33 33 33 33 33 33 34 34 34 34 33 33 33 32 32 32 31 31 31 31 30 30 30 30 30 30
28 29 30 30 30 31 32 32 33 33 33 33 33 33 33 33 33 33 33 33 33 33 33 32 32 32 32 31 31 31 31 31 31 30 30 30 30 30
30 30 31 31 32 32 33 33 33 33 32 32 32 32 32 32 32 33 32 32 32 32 31 31 31 31 31 30 30 30 30 30 30 30 30 30 30 29
31 32 32 32 32 32 32 33 33 33 32 32 32 32 32 32 32 32 31 31 31 31 31 30 30 30 30 30 31 30 30 30 29 29 29 29 28 28
32 32 32 32 32 32 33 33 33 32 32 32 32 31 31 31 31 31 30 30 29 30 30 30 29 29 29 29 29 29 29 29 29 29 28 28 28 28
32 32 32 32 32 33 33 33 32 32 32 32 32 31 31 31 31 30 29 29 29 29 29 30 29 29 28 28 28 28 29 29 28 28 27 27 27 27
32 32 33 33 33 33 33 32 32 32 32 32 32 31 30 30 30 29 29 28 29 29 30 29 29 28 28 28 29 29 29 28 28 28 27 26 26 26
Wind_Direction
291 291 289 288 287 284 280 280 282 284 284 286 287 287 288 287 287 286 286 285 284 284 285 286 286 287 287 287 287 287 286 285 284 283 281 280 279 277
294 293 291 288 286 284 282 281 282 284 285 286 288 288 289 290 290 289 288 289 287 287 286 286 286 287 287 287 287 288 288 287 285 285 283 282 280 278
298 299 301 296 292 290 286 285 285 286 286 287 290 290 290 291 292 292 291 290 289 289 289 288 288 288 288 287 287 287 287 286 286 285 284 282 280 280
305 304 306 304 299 295 291 288 287 287 287 289 291 291 291 292 293 293 294 292 291 290 289 289 290 291 290 289 288 287 287 287 287 286 284 282 281 281
312 310 307 306 304 302 300 296 293 292 292 292 293 294 295 294 294 295 295 294 293 291 290 290 291 292 292 291 291 290 291 290 289 287 285 284 283 282
312 313 313 310 309 306 305 301 298 297 297 297 297 297 298 298 298 296 295 294 292 291 292 294 294 293 293 293 292 292 291 291 290 289 287 285 285 283
310 310 311 313 313 311 309 304 302 301 300 299 298 298 299 300 300 299 299 299 295 294 294 296 296 296 295 294 294 293 292 292 291 290 288 286 285 284
311 312 311 312 314 312 310 307 303 300 299 299 298 299 300 301 301 301 301 301 299 297 296 297 298 297 297 296 295 294 293 292 291 290 289 287 286 284
309 310 310 311 311 312 310 308 306 304 302 302 301 300 301 301 302 301 301 300 300 299 299 299 299 298 298 297 296 295 294 294 293 292 290 288 286 284
308 309 310 311 311 311 310 307 306 304 303 302 302 302 302 302 302 301 301 301 301 302 302 300 299 299 299 298 298 297 296 295 295 294 293 290 288 285
306 307 308 310 310 309 308 307 306 304 303 302 301 301 302 303 304 304 303 303 303 302 301 301 301 301 300 299 299 298 298 298 297 295 294 292 290 288
303 304 306 307 308 309 308 306 305 305 304 303 303 303 303 303 304 305 304 303 303 302 301 301 302 302 301 300 300 300 300 300 299 298 297 295 293 291
303 304 306 306 306 307 307 307 306 306 305 305 305 305 306 306 306 305 304 304 303 303 303 303 303 303 303 303 302 302 301 300 300 300 299 299 297 295
304 305 305 305 305 305 306 307 307 307 307 307 307 307 308 308 308 307 306 306 306 305 305 306 305 305 304 303 302 302 302 301 301 301 300 301 300 298
306 306 306 307 308 309 309 309 309 309 308 308 308 307 308 308 308 308 307 307 306 306 306 306 305 305 304 304 303 303 302 301 301 301 301 301 301 300
312 311 310 310 309 309 309 309 309 310 309 309 309 308 308 308 308 308 307 307 306 305 305 305 304 304 304 304 303 303 302 301 301 301 301 301 301 301
311 311 309 309 309 309 310 310 310 310 310 310 309 309 308 308 308 307 307 307 307 307 307 306 305 304 304 304 303 303 302 302 302 302 302 301 301 301
309 308 308 308 308 308 309 309 309 310 310 309 309 308 308 308 308 307 307 308 308 308 308 307 306 306 306 304 303 303 303 303 302 302 302 301 300 301
309 308 308 307 308 308 309 309 310 311 311 310 309 309 308 308 309 308 308 308 308 308 309 308 308 307 306 305 305 305 304 304 303 303 302 302 302 302
309 309 308 308 308 308 309 310 310 311 310 309 310 309 309 309 309 309 309 309 308 308 308 309 309 308 308 307 307 306 305 305 304 303 303 303 303 303
311 310 309 309 309 309 310 310 310 309 310 309 310 309 310 310 310 310 310 309 309 309 310 310 310 309 309 310 309 309 308 307 305 303 302 301 302 302
311 310 310 310 310 310 310 310 310 310 310 310 309 308 309 310 311 310 310 310 309 310 311 310 310 309 309 310 311 311 310 309 307 305 304 302 302 302
312 311 311 311 311 311 311 311 311 311 310 310 309 309 309 310 311 311 310 309 310 310 311 311 310 309 309 310 311 311 311 310 309 308 307 305 304 303
Height
5885 5884 5882 5881 5880 5880 5879 5878 5878 5876 5875 5873 5872 5871 5869 5868 5866 5865 5863 5862 5860 5859 5857 5855 5854 5852 5850 5848 5847 5845 5843 5841 5839 5837 5836 5834 5833 5832
5882 5881 5879 5878 5877 5876 5875 5874 5873 5872 5871 5869 5867 5866 5864 5862 5860 5859 5857 5856 5854 5852 5851 5849 5847 5845 5843 5841 5840 5837 5835 5833 5831 5829 5827 5826 5824 5823
5879 5877 5876 5874 5873 5872 5871 5870 5869 5868 5866 5864 5862 5860 5858 5857 5855 5853 5851 5849 5848 5846 5844 5842 5840 5838 5836 5834 5832 5829 5827 5825 5823 5821 5818 5817 5815 5814
5876 5874 5873 5871 5870 5868 5866 5865 5864 5862 5861 5859 5857 5855 5853 5851 5849 5847 5845 5843 5841 5839 5837 5835 5833 5830 5828 5825 5823 5821 5818 5816 5813 5811 5809 5807 5806 5804
5873 5872 5870 5868 5866 5864 5862 5860 5859 5857 5856 5854 5852 5850 5848 5846 5843 5841 5839 5836 5834 5832 5830 5828 5825 5823 5820 5817 5814 5812 5809 5807 5805 5802 5800 5797 5796 5794
5871 5869 5867 5864 5862 5860 5857 5856 5854 5852 5851 5849 5847 5845 5842 5840 5837 5835 5832 5830 5827 5825 5823 5820 5817 5814 5812 5809 5806 5803 5800 5798 5795 5792 5790 5788 5785 5783
5868 5866 5863 5861 5858 5856 5854 5852 5850 5848 5846 5844 5842 5839 5837 5834 5831 5828 5826 5823 5820 5817 5815 5812 5809 5806 5803 5800 5797 5794 5791 5788 5785 5783 5780 5777 5775 5773
5864 5862 5860 5858 5855 5852 5850 5847 5845 5843 5841 5839 5836 5834 5831 5828 5825 5822 5819 5816 5813 5811 5807 5804 5800 5797 5794 5791 5788 5785 5781 5778 5775 5772 5769 5766 5764 5761
5861 5859 5856 5854 5851 5848 5846 5843 5841 5838 5836 5833 5830 5828 5825 5822 5819 5815 5812 5809 5806 5802 5799 5795 5792 5788 5785 5781 5778 5775 5771 5767 5764 5761 5758 5755 5752 5749
5857 5855 5852 5849 5846 5844 5841 5838 5835 5833 5830 5827 5824 5821 5818 5815 5812 5809 5805 5802 5798 5794 5790 5787 5783 5779 5775 5771 5768 5764 5760 5756 5753 5749 5746 5743 5740 5737
5853 5850 5848 5845 5842 5839 5836 5833 5830 5827 5824 5821 5818 5814 5811 5808 5805 5802 5798 5794 5790 5786 5782 5778 5774 5770 5766 5761 5757 5753 5749 5745 5742 5738 5734 5731 5728 5725
5848 5845 5842 5839 5837 5833 5831 5827 5824 5821 5817 5814 5811 5808 5804 5801 5797 5794 5790 5786 5781 5778 5773 5769 5764 5760 5756 5751 5747 5743 5739 5735 5731 5727 5723 5720 5716 5713
5842 5840 5837 5834 5831 5828 5825 5821 5818 5815 5811 5808 5804 5800 5797 5793 5789 5785 5781 5777 5772 5768 5764 5759 5755 5750 5746 5742 5737 5733 5729 5725 5721 5717 5713 5710 5706 5703
5837 5834 5830 5827 5824 5821 5818 5815 5811 5808 5804 5801 5797 5793 5789 5785 5781 5777 5772 5768 5763 5759 5754 5750 5745 5741 5737 5732 5728 5724 5720 5716 5712 5708 5704 5701 5697 5693
5831 5828 5824 5821 5818 5815 5811 5808 5805 5801 5797 5793 5789 5785 5781 5776 5772 5768 5763 5759 5755 5750 5745 5741 5737 5732 5728 5724 5719 5715 5712 5708 5704 5700 5696 5692 5688 5685
5825 5822 5818 5815 5812 5808 5805 5801 5797 5793 5789 5785 5780 5776 5772 5768 5763 5759 5754 5750 5745 5741 5736 5732 5727 5723 5719 5715 5711 5707 5703 5699 5695 5691 5687 5683 5679 5676
5819 5815 5812 5808 5805 5801 5797 5794 5790 5785 5781 5776 5772 5767 5763 5759 5754 5750 5745 5740 5736 5731 5727 5723 5718 5714 5710 5706 5702 5698 5694 5690 5686 5682 5679 5675 5671 5668
5812 5808 5805 5801 5797 5794 5790 5785 5781 5777 5772 5768 5763 5759 5754 5750 5745 5741 5736 5731 5727 5722 5718 5714 5710 5705 5702 5698 5694 5690 5686 5682 5678 5674 5670 5667 5663 5660
5806 5802 5797 5793 5789 5785 5781 5777 5772 5768 5763 5759 5755 5750 5745 5741 5736 5732 5727 5723 5718 5714 5710 5706 5701 5697 5693 5689 5685 5682 5677 5674 5670 5666 5662 5659 5655 5652
5798 5794 5790 5785 5781 5777 5773 5768 5764 5760 5755 5751 5746 5742 5737 5732 5728 5723 5719 5714 5710 5706 5702 5698 5693 5689 5685 5681 5677 5673 5669 5665 5662 5658 5655 5651 5647 5644
5790 5786 5782 5777 5773 5769 5764 5760 5756 5751 5747 5742 5738 5733 5729 5724 5720 5715 5711 5706 5702 5698 5694 5690 5686 5681 5677 5673 5669 5665 5661 5657 5653 5650 5647 5643 5640 5636
5783 5778 5774 5770 5765 5761 5756 5752 5747 5743 5738 5734 5729 5725 5720 5716 5711 5707 5703 5699 5695 5691 5686 5682 5678 5674 5670 5666 5661 5657 5653 5649 5645 5642 5638 5635 5632 5629
5775 5770 5766 5762 5757 5753 5748 5744 5739 5735 5730 5726 5721 5717 5712 5708 5704 5699 5695 5691 5687 5683 5679 5675 5670 5666 5662 5658 5654 5650 5646 5642 5638 5634 5631 5627 5624 5621